742  
ASUS43 KLMK 250210  
RWRKY  
KENTUCKY REGIONAL WEATHER ROUNDUP  
NATIONAL WEATHER SERVICE LOUISVILLE KY  
1000 PM EDT THU APR 24 2014  
 
NOTE "FAIR" INDICATES FEW OR NO CLOUDS BELOW 12,000 FEET  
WITH NO SIGNIFICANT WEATHER AND/OR S TO VISIBILITY
.  
 
KYZ001>023-026-027-061>063-070>075-250300-  
WESTERN AND SOUTH CENTRAL KENTUCKY  
 
CITY SKY/WX TMP DP RH WIND PRES REMARKS
 
PADUCAH TSTM 68 56 65 SW12 29.71R  
HENDERSON CLOUDY 70 43 37 SE8 29.67F  
OWENSBORO MOCLDY 69 41 36 SE7 29.69F  
HOPKINSVILLE MOCLDY 74 48 40 S9 29.69F  
BOWLING GREEN MOCLDY 71 44 37 SE8 29.74F  
GLASGOW MOCLDY 70 41 34 SE6 29.76F  

 
 
KYZ024-025-028>034-038-045-046-053-250300-  
NORTH CENTRAL KENTUCKY  
 
CITY SKY/WX TMP DP RH WIND PRES REMARKS
 
LOUISVILLE/SDF CLOUDY 69 41 36 SE10 29.76F  
LOUISVILLE/LOU CLOUDY 70 40 33 SE7 29.77F  
FORT KNOX CLOUDY 68 40 36 E9 29.74F  

 
 
KYZ035>037-039>044-047>052-055>060-089>105-250300-  
NORTHEAST KENTUCKY  
 
CITY SKY/WX TMP DP RH WIND PRES REMARKS
 
LEXINGTON PTCLDY 65 36 34 E9 29.82F  
COVINGTON CLOUDY 61 32 33 E8 29.82S  
FRANKFORT MOCLDY 61 41 47 E8 29.79F  

 
 
KYZ054-064>069-076>088-106>120-250300-  
SOUTHEAST KENTUCKY  
 
CITY SKY/WX TMP DP RH WIND PRES REMARKS
 
JACKSON CLOUDY 66 29 24 VRB3 29.87R  
LONDON PTCLDY 67 37 33 CALM 29.86R  
SOMERSET PTCLDY 66 32 28 S5 29.84F  
MIDDLESBORO MOCLDY 58 45 62 CALM 29.90R  
MONTICELLO MOCLDY 62 42 47 CALM 29.85S  

 
 
CLICK HERE TO GO TO PREVIOUS BULLETINS.

The Nexlab KY Page Main Text Page